Regional Weather Roundup
Issued by NWS

Home | Current Version | Previous Version | Graphics & Text | Print | Product List | Glossary Off
Versions: 1 2 3 4 5 6 7 8 9 10 11 12 13 14 15 16 17 18 19 20 21 22 23 24 25 26 27 28 29 30 31 32 33 34 35 36 37 38 39 40 41 42 43 44 45 46 47 48 49 50

028
ASUS43 KMKX 191221
RWRWI

WISCONSIN REGIONAL WEATHER ROUNDUP
NATIONAL WEATHER SERVICE MILWAUKEE/SULLIVAN WI
700 AM CDT THU OCT 19 2017

NOTE: "FAIR" INDICATES FEW OR NO CLOUDS BELOW 12,000 FEET WITH NO
SIGNIFICANT WEATHER AND/OR OBSTRUCTIONS TO VISIBILITY.

WIZ001-002-006>008-014>016-023>028-191300-
NORTHWEST WISCONSIN

CITY           SKY/WX    TMP DP  RH WIND       PRES   REMARKS
SUPERIOR ARPT  CLOUDY    43  28  56 SW8       29.98R
6HR MIN TEMP:  43; 6HR MAX TEMP:  47;

ASHLAND        CLEAR     43  26  51 SW10      29.97R
6HR MIN TEMP:  42; 6HR MAX TEMP:  49;

HAYWARD        PTCLDY    36  28  73 S5        30.02R WCI  32
6HR MIN TEMP:  35; 6HR MAX TEMP:  50;

SIREN          PTCLDY    40  30  67 CALM      30.03R
6HR MIN TEMP:  40; 6HR MAX TEMP:  47;

CUMBERLAND     CLOUDY    36  30  80 CALM      30.03S
RICE LAKE      CLOUDY    36  31  85 CALM      30.05S
6HR MIN TEMP:  34; 6HR MAX TEMP:  47;

CHETEK         CLOUDY    36  31  80 E6        30.05R WCI  32
6HR MIN TEMP:  35; 6HR MAX TEMP:  49;

LADYSMITH      PTCLDY    37  29  75 S5        30.05S WCI  33
6HR MIN TEMP:  35; 6HR MAX TEMP:  49;

EAU CLAIRE     CLOUDY    38  30  73 CALM      30.05R
6HR MIN TEMP:  38; 6HR MAX TEMP:  48;

MENOMONIE      CLOUDY    38  34  85 CALM      30.05S
6HR MIN TEMP:  38; 6HR MAX TEMP:  49;

NEW RICHMOND   CLOUDY    41  31  67 SW3       30.05R
6HR MIN TEMP:  39; 6HR MAX TEMP:  46;

OSCEOLA        PTCLDY    34  32  90 CALM      30.07R
6HR MIN TEMP:  34; 6HR MAX TEMP:  45;

$$

WIZ003>005-009-010-017-018-191300-
NORTH CENTRAL WISCONSIN

CITY           SKY/WX    TMP DP  RH WIND       PRES   REMARKS
MANITOWISH WTR CLOUDY    41  25  53 W8        29.97S
6HR MIN TEMP:  41; 6HR MAX TEMP:  47;

ARBOR VITAE    CLOUDY    42  26  52 W8        29.99R
6HR MIN TEMP:  42; 6HR MAX TEMP:  52;

WOODRUFF       CLOUDY    42  26  52 W8        29.99R
6HR MIN TEMP:  42; 6HR MAX TEMP:  52;

RHINELANDER    CLOUDY    37  25  61 W8        30.00R WCI  31
6HR MIN TEMP:  36; 6HR MAX TEMP:  50;

EAGLE RIVER    CLOUDY    39  23  52 W8        29.96S WCI  34
6HR MIN TEMP:  39; 6HR MAX TEMP:  50;

LAND O LAKES   PTCLDY    44  22  42 W5        29.97S
6HR MIN TEMP:  44; 6HR MAX TEMP:  50;

PHILLIPS       CLOUDY    40  26  56 W3        30.01R
6HR MIN TEMP:  40; 6HR MAX TEMP:  48;

TOMAHAWK       CLOUDY    40  25  55 CALM      30.02R
6HR MIN TEMP:  36; 6HR MAX TEMP:  49;

MEDFORD        CLOUDY    40  27  61 W3        30.04R
6HR MIN TEMP:  39; 6HR MAX TEMP:  48;

MERRILL        CLOUDY    35  28  73 W5        30.04R WCI  31
6HR MIN TEMP:  35; 6HR MAX TEMP:  51;

$$

WIZ029-030-035-036-043>047-191300-
CENTRAL WISCONSIN

CITY           SKY/WX    TMP DP  RH WIND       PRES   REMARKS
WAUSAU         CLOUDY    43  29  57 NW5       30.03R
6HR MIN TEMP:  43; 6HR MAX TEMP:  51;

MOSINEE        PTCLDY    43  28  56 W6        30.06R
MARSHFIELD     CLOUDY    42  27  55 W7        30.05R
6HR MIN TEMP:  41; 6HR MAX TEMP:  49;

STEVENS POINT  PTCLDY    45  27  50 W7        30.06R
6HR MIN TEMP:  44; 6HR MAX TEMP:  53;

WAUPACA        CLOUDY    47  28  49 W5        30.06R
6HR MIN TEMP:  47; 6HR MAX TEMP:  59;

WAUTOMA        NOT AVBL
WISC RAPIDS    CLOUDY    43  28  55 W5        30.08R
6HR MIN TEMP:  42; 6HR MAX TEMP:  54;

CAMP DOUGLAS   PTCLDY    37  30  75 SE3       30.07R
$$

WIZ011>013-019>022-031-037>040-048>050-191300-
NORTHEAST WISCONSIN

CITY           SKY/WX    TMP DP  RH WIND       PRES   REMARKS
ANTIGO         CLOUDY    38  28  66 W7        30.03R WCI  32
6HR MIN TEMP:  38; 6HR MAX TEMP:  51;

SHAWANO        PTCLDY    46  28  49 SW3       30.03R
6HR MIN TEMP:  46; 6HR MAX TEMP:  60;

OCONTO         CLOUDY    42  28  56 W3        30.02R
6HR MIN TEMP:  41; 6HR MAX TEMP:  58;

STURGEON BAY   PTCLDY    50  30  46 W6        30.02R
6HR MIN TEMP:  49; 6HR MAX TEMP:  60;

GREEN BAY      CLOUDY    47  31  53 SW6       30.05R
6HR MIN TEMP:  47; 6HR MAX TEMP:  58;

MANITOWOC      PTCLDY    49  31  49 W8        30.05R
6HR MIN TEMP:  49; 6HR MAX TEMP:  63;

APPLETON       MOCLDY    45  27  49 W7        30.05R
CLINTONVILLE   CLOUDY    45  27  49 W6        30.04R
OSHKOSH        PTCLDY    47  29  49 W5        30.06R
6HR MIN TEMP:  47; 6HR MAX TEMP:  58;

$$

WIZ032>034-041-042-053>061-191300-
SOUTHWEST WISCONSIN

CITY           SKY/WX    TMP DP  RH WIND       PRES   REMARKS
LA CROSSE      CLOUDY    46  38  73 S5        30.09R
6HR MIN TEMP:  43; 6HR MAX TEMP:  55;

SPARTA         CLOUDY    32  31  94 CALM      30.10R
6HR MIN TEMP:  32; 6HR MAX TEMP:  53;

VIROQUA        CLOUDY    46  30  54 SW5       30.10R
6HR MIN TEMP:  44; 6HR MAX TEMP:  54;

BOSCOBEL       CLOUDY    38  36  92 CALM      30.12R
6HR MIN TEMP:  38; 6HR MAX TEMP:  52;

PRAIRIE DU CHI CLOUDY    41  35  77 CALM      30.11S
6HR MIN TEMP:  41; 6HR MAX TEMP:  53;

PLATTEVILLE    CLOUDY    47  40  78 CALM      30.12R
6HR MIN TEMP:  47; 6HR MAX TEMP:  55;

$$

WIZ056-057-062-063-064-067-068-191300-
SOUTH CENTRAL WISCONSIN

CITY           SKY/WX    TMP DP  RH WIND       PRES   REMARKS
REEDSBURG      CLOUDY    42  35  76 CALM      30.10R
6HR MIN TEMP:  41; 6HR MAX TEMP:  56;

BARABOO/DELLS  CLOUDY    42  31  65 CALM      30.10R
6HR MIN TEMP:  42; 6HR MAX TEMP:  56;

LONE ROCK      CLOUDY    39  38  96 CALM      30.11R
6HR MIN TEMP:  39; 6HR MAX TEMP:  57;

MINERAL POINT  PTCLDY    50  32  50 CALM      30.11S
MADISON        CLOUDY    43  36  76 CALM      30.10R
6HR MIN TEMP:  43; 6HR MAX TEMP:  59;

MIDDLETON      CLOUDY    42  38  85 CALM      30.11R
6HR MIN TEMP:  42; 6HR MAX TEMP:  58;

WATERTOWN      CLOUDY    41  38  89 CALM      30.09R
6HR MIN TEMP:  41; 6HR MAX TEMP:  56;

MONROE         CLOUDY    52  30  43 NW5       30.11R
JANESVILLE     CLEAR     43  43 100 CALM      30.10R
$$

WIZ051-052-058>065-066-070>072-191300-
SOUTHEAST WISCONSIN

CITY           SKY/WX    TMP DP  RH WIND       PRES   REMARKS
MILWAUKEE      CLOUDY    55  27  34 W3        30.09R
6HR MIN TEMP:  54; 6HR MAX TEMP:  62;

WAUKESHA       CLEAR     48  30  49 W9        30.10R
MILWAUKEE/TIMM CLOUDY    48  25  40 W3        30.09R
RACINE         PTCLDY    49  39  68 W6        30.10R
6HR MIN TEMP:  49; 6HR MAX TEMP:  61;

BURLINGTON     CLOUDY    43  38  83 CALM      30.10R
6HR MIN TEMP:  42; 6HR MAX TEMP:  57;

KENOSHA        CLOUDY    46  40  79 W3        30.10R
6HR MIN TEMP:  46; 6HR MAX TEMP:  60;

FOND DU LAC    PTCLDY    47  28  47 SW6       30.08R
6HR MIN TEMP:  47; 6HR MAX TEMP:  57;

SHEBOYGAN      PTCLDY    47  33  58 W6        30.07R
6HR MIN TEMP:  47; 6HR MAX TEMP:  62;

WEST BEND      CLOUDY    50  25  37 W6        30.08R
JUNEAU         CLOUDY    45  32  60 CALM      30.10R
6HR MIN TEMP:  45; 6HR MAX TEMP:  54;

$$

LSZ147-162-191300-
LAKE SUPERIOR

STATION/POSITION TIME  TEMP    WIND        PRES    WAVE
                       AIR SEA DIR/SP/G            HT/PER
                 (UTC) (F)     (DEG/KT/KT) (MB)    (FT/S)
W MID LAKE BUOY  1150   52 52              1011.1R   6/ 6
DEVILS ISLAND    1200   53     250/ 25/ 29 1013.2R
SAXON HARBOR     1140   50     210/  8/ 13 1013.9R
$$

LMZ867-665-643>646-191300-
LAKE MICHIGAN

STATION/POSITION TIME  TEMP    WIND        PRES    WAVE
                       AIR SEA DIR/SP/G            HT/PER
                 (UTC) (F)     (DEG/KT/KT) (MB)    (FT/S)
S GREEN BAY BUOY 1200   53 58  240/



USA.gov is the U.S. government's official web portal to all federal, state and local government web resources and services.